TimeEDT,TemperatureF,Dew PointF,Humidity,Sea Level PressureIn,VisibilityMPH,Wind Direction,Wind SpeedMPH,Gust SpeedMPH,PrecipitationIn,Events,Conditions,WindDirDegrees,DateUTC
12:53 AM,59.0,51.1,75,29.85,10.0,NNW,6.9,-,N/A,,Clear,330,2013-09-14 04:53:00
1:53 AM,57.9,48.9,72,29.86,10.0,NNW,6.9,-,N/A,,Clear,330,2013-09-14 05:53:00
2:53 AM,57.9,46.9,67,29.87,10.0,NNW,9.2,-,N/A,,Clear,340,2013-09-14 06:53:00
3:53 AM,57.0,48.0,72,29.88,10.0,NNW,5.8,-,N/A,,Overcast,340,2013-09-14 07:53:00
4:53 AM,57.0,46.9,69,29.89,10.0,NNW,10.4,-,N/A,,Scattered Clouds,340,2013-09-14 08:53:00
5:53 AM,55.9,46.9,72,29.91,10.0,NNW,6.9,-,N/A,,Mostly Cloudy,340,2013-09-14 09:53:00
6:53 AM,55.0,46.9,74,29.93,10.0,NW,4.6,-,N/A,,Clear,320,2013-09-14 10:53:00
7:53 AM,57.0,46.9,69,29.94,10.0,NNW,9.2,-,N/A,,Clear,340,2013-09-14 11:53:00
8:53 AM,57.9,46.0,65,29.95,10.0,North,13.8,-,N/A,,Clear,350,2013-09-14 12:53:00
9:37 AM,59.0,46.4,63,29.97,2.5,NNW,11.5,-,N/A,,Haze,340,2013-09-14 13:37:00
9:46 AM,59.0,46.4,63,29.97,10.0,North,9.2,-,N/A,,Clear,350,2013-09-14 13:46:00
9:53 AM,61.0,46.0,58,29.97,10.0,North,10.4,18.4,N/A,,Clear,350,2013-09-14 13:53:00
10:53 AM,62.1,46.0,56,29.97,10.0,North,10.4,18.4,N/A,,Clear,350,2013-09-14 14:53:00
11:53 AM,64.9,46.9,52,29.97,10.0,NNW,8.1,16.1,N/A,,Clear,340,2013-09-14 15:53:00
12:53 PM,66.0,46.9,50,29.99,10.0,Variable,4.6,-,N/A,,Scattered Clouds,0,2013-09-14 16:53:00
1:53 PM,66.0,46.0,48,29.99,10.0,NW,8.1,16.1,N/A,,Mostly Cloudy,310,2013-09-14 17:53:00
2:53 PM,66.0,45.0,47,29.98,10.0,NW,8.1,-,N/A,,Mostly Cloudy,310,2013-09-14 18:53:00
3:53 PM,66.0,46.0,48,29.99,10.0,North,5.8,-,N/A,,Overcast,350,2013-09-14 19:53:00
4:53 PM,64.9,45.0,48,30.01,10.0,NW,8.1,-,N/A,,Overcast,310,2013-09-14 20:53:00
5:53 PM,64.0,46.0,52,30.02,10.0,West,9.2,-,N/A,,Mostly Cloudy,280,2013-09-14 21:53:00
6:53 PM,64.0,46.0,52,30.04,10.0,WNW,5.8,-,N/A,,Overcast,300,2013-09-14 22:53:00
7:53 PM,63.0,46.0,54,30.06,10.0,NW,9.2,-,N/A,,Overcast,320,2013-09-14 23:53:00
8:53 PM,60.1,46.9,62,30.09,10.0,NW,5.8,-,N/A,,Clear,310,2013-09-15 00:53:00
9:53 PM,57.0,46.0,67,30.10,10.0,WNW,4.6,-,N/A,,Clear,290,2013-09-15 01:53:00
10:53 PM,55.9,46.0,69,30.11,10.0,WNW,3.5,-,N/A,,Clear,300,2013-09-15 02:53:00
11:53 PM,55.0,46.0,72,30.12,10.0,WNW,4.6,-,N/A,,Clear,300,2013-09-15 03:53:00